IRIDIUM 5 [+]

Last updated on Thu Nov 16 2017 00:18:57 GMT+0000 (Coordinated Universal Time)

1 24795U 97020D 17319.47317708 .00000268 00000-0 67862-4 0 9992 2 24795 86.3980 255.6443 0003102 141.9084 218.2339 14.47227831 74957
UTC large
Height (km)
Speed (km/s)
/
Latitude / Longitude
Inclination (degrees)
Orbital Period (minutes)
Azimuth
Elevation
Range (km)
Doppler Factor

Next 0 passes for location: London (51.5072 / 0.1276)

Sorry there are no passes over London.
IRIDIUM 5 [+]